OPS 4682 DEB, 38411

Orbit data source: Space-Track

OPS 4682 DEB, 38411 is space debris in LEO originally from a launch on Sat, 03 Apr 1965 UTC launched from the Air Force Western Test Range (AFWTR). Debris objects in space refer to the collection of defunct objects orbiting the Earth. Examples of debris include non-operational satellites, rocket bodies, and fragments generated from explosions, collisions, or faulty payload assembly.

Loading next visibility...
Identifier
38411, 1965-027DQ
Orbit
LEO
Country
Flag of USUS
Related business
Manufacturer
Unknown
Mission
Spacecraft
Bus & Motor
Unknown
Mass
Unknown
Launch date (UTC)
1965-04-03 (61 years ago)
Launch vehicle
Unknown
Launch site
Air Force Western Test Range (AFWTR)
Object type
Payload
Rocket body
Debris
Shape & HBR
Unknown shape, 0.1 m
Radar Cross Section
Small (<0.1 m²)

Expand to show TLE details & history
Last TLE update: 15 hours ago

TLE from 15 hours ago
0 OPS 4682 DEB
1 38411U 65027DQ  25294.47633822 -.00000088  00000-0 -33219-3 0  9993
2 38411  90.2528  10.5961 0037391   2.0587 358.0680 12.96795014631938
Epoch: 2025-10-21T11:25Z
TLE epoch observation values (Epoch: 2025-10-21T11:25:55.622Z)
Latitude
-0.00006°
Longitude
168.95059°
Altitude
1,248.945 km
Speed
7.244 km/s
True Right ascension
00h 42m 23s
True Declination
0° 00' 00"
Sunlit
Object was in full shadow at epoch
Visualization orbit readout
Latitude
Unknown
Longitude
Unknown
Altitude
Unknown
Speed
Unknown
Apparent Right ascension
Unknown
Apparent Declination
Unknown
Sunlit
N/A
Visualization observer readout
Local Sidereal Time
21:48:27
Azimuth
Unknown
Elevation
Unknown
Doppler factor
Unknown
Orbital elements
Apogee altitude
1,300.405 km
Perigee altitude
1,243.198 km
Semi-major axis
7,649.939 km
Eccentricity
0.00374
Inclination
90.2528°
RAAN
10.5961°
Arg. of periapsis
2.0587°
True anomaly
358.05349°
Mean anomaly
358.068°
Eccentric anomaly
358.06075°
Mean motion
3.24382 °/min
Orbital period
110.98 mins
BSTAR
-0.00033219
Loading maneuver chart data...
Computing Atmospheric mass density...
Loading historical data...
Loading historical data...
Loading historical data...
Loading historical data...
Loading historical data...
Loading historical data...
Loading historical data...

Documentation

Showing up to 5 results
|